DW1234 Weather Reports


time (UTC)temp
F
wind
direction
speed
knots
gust
knots
rain 1hr
in
rain 24hr
in
rain mn
in
humidity
%
barometer
mb
20260831222747 92 216 2.6 5.2 0.00 0.00 0.00 61 1014.2
20260831222230 92 252 2.6 6.1 0.00 0.00 0.00 62 1014.2
20260831221800 92 252 1.7 6.1 0.00 0.00 0.00 62 1014.2
20260831221543 91 252 2.6 6.1 0.00 0.00 0.00 63 1011.3
20260831221250 92 252 3.5 6.1 0.00 0.00 0.00 63 1014.1
20260831220731 92 248 3.5 4.3 0.00 0.00 0.00 65 1014.2
20260831220242 91 248 3.5 4.3 0.00 0.00 0.00 64 1014.2
20260831220039 91 248 2.6 4.3 0.00 0.00 0.00 63 1011.3
20260831215724 91 248 2.6 6.1 0.00 0.00 0.00 62 1014.2
20260831215249 91 248 2.6 6.1 0.00 0.00 0.00 63 1014.2
20260831214733 91 263 3.5 6.1 0.00 0.00 0.00 64 1014.2
20260831214532 90 252 2.6 6.1 0.00 0.00 0.00 65 1011.3
20260831214306 91 252 3.5 6.1 0.00 0.00 0.00 63 1014.2
20260831213728 91 229 4.3 7.0 0.00 0.00 0.00 63 1014.2
20260831213239 90 225 6.1 7.8 0.00 0.00 0.00 63 1014.3
20260831213052 90 252 5.2 7.8 0.00 0.00 0.00 63 1011.4
20260831212723 90 236 5.2 8.7 0.00 0.00 0.00 64 1014.3
20260831212235 90 221 5.2 8.7 0.00 0.00 0.00 65 1014.4
20260831211744 90 220 5.2 8.7 0.00 0.00 0.00 64 1014.3
20260831211511 90 214 4.3 8.7 0.00 0.00 0.00 63 1011.5
20260831211228 90 219 6.1 8.7 0.00 0.00 0.00 65 1014.4
20260831210738 90 233 5.2 7.8 0.00 0.00 0.00 64 1014.4
20260831210249 91 211 5.2 7.8 0.00 0.00 0.00 63 1014.5
20260831210015 90 222 4.3 9.6 0.00 0.00 0.00 63 1011.5
20260831205731 91 202 4.3 9.6 0.00 0.00 0.00 62 1014.4
20260831205305 91 230 7.0 10.4 0.00 0.00 0.00 60 1014.4
20260831204752 91 217 7.0 10.4 0.00 0.00 0.00 62 1014.4
20260831204539 90 220 6.1 12.2 0.00 0.00 0.00 62 1011.6
20260831204241 91 215 7.8 13.0 0.00 0.00 0.00 64 1014.5
20260831203722 91 247 7.8 13.0 0.00 0.00 0.00 62 1014.6
20260831203254 91 245 7.8 12.2 0.00 0.00 0.00 63 1014.5
20260831203025 90 217 7.0 10.4 0.00 0.00 0.00 66 1011.7
20260831202743 90 254 7.8 10.4 0.00 0.00 0.00 67 1014.6
20260831202227 89 216 6.1 9.6 0.00 0.00 0.00 67 1014.6
20260831201759 89 242 5.2 12.2 0.00 0.00 0.00 66 1014.6
20260831201559 89 238 7.0 12.2 0.00 0.00 0.00 66 1011.8
20260831201513 89 241 7.0 12.2 0.00 0.00 0.00 66 1011.8
20260831201222 89 236 7.8 9.6 0.00 0.00 0.00 69 1014.6
20260831200747 89 232 5.2 10.4 0.00 0.00 0.00 67 1014.7
20260831200238 88 242 6.1 8.7 0.00 0.00 0.00 69 1014.7
20260831200047 88 237 4.3 8.7 0.00 0.00 0.00 70 1011.8
20260831195749 88 245 6.1 8.7 0.00 0.00 0.00 68 1014.7
20260831195240 88 211 5.2 7.8 0.00 0.00 0.00 69 1014.6
20260831194722 88 228 5.2 8.7 0.00 0.00 0.00 68 1014.7
20260831194531 88 233 4.3 8.7 0.00 0.00 0.00 69 1011.9
20260831194234 88 233 6.1 8.7 0.00 0.00 0.00 68 1014.7
20260831193740 88 238 5.2 9.6 0.00 0.00 0.00 66 1014.8
20260831193222 88 237 7.0 9.6 0.00 0.00 0.00 66 1014.7
20260831193036 88 240 4.3 7.8 0.00 0.00 0.00 66 1011.9
20260831192734 89 229 5.2 7.0 0.00 0.00 0.00 67 1014.7
20260831192247 89 239 5.2 7.8 0.00 0.00 0.00 66 1014.7
20260831191730 89 235 5.2 8.7 0.00 0.00 0.00 65 1014.7
20260831191528 89 215 4.3 8.7 0.00 0.00 0.00 66 1011.8
20260831191303 90 223 6.1 8.7 0.00 0.00 0.00 66 1014.7
20260831190722 90 242 5.2 9.6 0.00 0.00 0.00 65 1014.6
20260831190309 90 232 5.2 8.7 0.00 0.00 0.00 65 1014.6
20260831190056 90 238 5.2 8.7 0.00 0.00 0.00 66 1011.7
20260831185732 91 201 6.1 8.7 0.00 0.00 0.00 67 1014.6
20260831185243 90 220 5.2 8.7 0.00 0.00 0.00 64 1014.6
20260831184726 90 239 4.3 7.8 0.00 0.00 0.00 64 1014.6
20260831184546 90 217 3.5 7.8 0.00 0.00 0.00 61 1011.8
20260831184240 90 232 3.5 7.8 0.00 0.00 0.00 62 1014.7
20260831183722 90 225 3.5 5.2 0.00 0.00 0.00 63 1014.6
20260831183233 90 215 3.5 5.2 0.00 0.00 0.00 61 1014.6
20260831183058 90 215 2.6 4.3 0.00 0.00 0.00 62 1011.8
20260831182744 90 215 1.7 4.3 0.00 0.00 0.00 62 1014.6
20260831182222 90 215 2.6 5.2 0.00 0.00 0.00 61 1014.6
20260831181735 91 215 3.5 5.2 0.00 0.00 0.00 61 1014.5
20260831181550 90 202 3.5 5.2 0.00 0.00 0.00 61 1011.7
20260831181246 91 236 1.7 6.1 0.00 0.00 0.00 62 1014.6
20260831180726 90 236 4.3 6.1 0.00 0.00 0.00 65 1014.6
20260831180237 90 192 3.5 6.1 0.00 0.00 0.00 64 1014.6
20260831180050 90 241 2.6 7.0 0.00 0.00 0.00 63 1011.7
20260831175749 90 252 2.6 6.1 0.00 0.00 0.00 66 1014.5
20260831175230 90 258 1.7 7.0 0.00 0.00 0.00 64 1014.5
20260831174800 90 259 3.5 7.0 0.00 0.00 0.00 65 1014.5
20260831174523 89 240 1.7 7.8 0.00 0.00 0.00 64 1011.8
20260831174223 90 232 3.5 7.8 0.00 0.00 0.00 64 1014.6
20260831173734 89 227 4.3 7.8 0.00 0.00 0.00 64 1014.7
20260831173307 89 238 3.5 7.0 0.00 0.00 0.00 63 1014.7
20260831173101 89 238 3.5 7.0 0.00 0.00 0.00 64 1011.8
20260831172728 89 261 3.5 5.2 0.00 0.00 0.00 66 1014.7
20260831172259 89 308 2.6 6.1 0.00 0.00 0.00 67 1014.7
20260831171722 89 221 3.5 6.1 0.00 0.00 0.00 65 1014.7
20260831171539 88 251 2.6 6.1 0.00 0.00 0.00 64 1011.8
20260831171250 89 243 2.6 6.1 0.00 0.00 0.00 67 1014.6
20260831170738 88 281 2.6 7.0 0.00 0.00 0.00 68 1014.5
20260831170309 88 250 2.6 8.7 0.00 0.00 0.00 69 1014.5
20260831170035 87 288 4.3 8.7 0.00 0.00 0.00 69 1011.6
20260831165728 87 260 3.5 8.7 0.00 0.00 0.00 70 1014.4
20260831165240 86 291 2.6 8.7 0.00 0.00 0.00 71 1014.3
20260831164723 86 272 4.3 8.7 0.00 0.00 0.00 70 1014.4
20260831164530 85 240 4.3 8.7 0.00 0.00 0.00 72 1011.5
20260831164237 85 279 3.5 7.0 0.00 0.00 0.00 72 1014.4
20260831163744 85 308 3.5 6.1 0.00 0.00 0.00 74 1014.2
20260831163227 84 234 2.6 7.0 0.00 0.00 0.00 73 1014.1
20260831163036 84 233 3.5 7.0 0.00 0.00 0.00 73 1011.3
20260831162758 84 247 4.3 7.0 0.00 0.00 0.00 73 1014.1
20260831162248 84 217 4.3 7.0 0.00 0.00 0.00 73 1014.3
20260831161737 84 252 4.3 6.1 0.00 0.00 0.00 73 1014.3
20260831161540 83 286 3.5 6.1 0.00 0.00 0.00 73 1011.4
20260831161250 84 237 3.5 4.3 0.00 0.00 0.00 72 1014.2
20260831160731 84 251 2.6 5.2 0.00 0.00 0.00 73 1013.9
20260831160238 84 257 2.6 5.2 0.00 0.00 0.00 75 1013.9
20260831160044 83 269 2.6 5.2 0.00 0.00 0.00 76 1011.0
20260831155746 83 251 2.6 4.3 0.00 0.00 0.00 76 1013.7
20260831155237 83 327 1.7 2.6 0.00 0.00 0.00 75 1013.7
20260831154749 83 14 1.7 5.2 0.00 0.00 0.00 76 1013.6
20260831154521 82 333 0.9 5.2 0.00 0.00 0.00 76 1010.8
20260831154232 83 333 2.6 7.0 0.00 0.00 0.00 76 1013.5
20260831153740 83 348 3.5 7.0 0.00 0.00 0.00 76 1013.5
20260831153224 82 325 3.5 7.0 0.00 0.00 0.00 77 1013.4
20260831153022 82 330 3.5 7.8 0.00 0.00 0.00 77 1010.3
20260831152732 82 310 5.2 7.8 0.00 0.00 0.00 77 1013.4
20260831152306 82 319 5.2 7.8 0.00 0.00 0.00 78 1013.6
20260831151726 82 277 3.5 7.0 0.00 0.00 0.00 76 1013.6
20260831151517 81 306 3.5 5.2 0.00 0.00 0.00 76 1010.7
20260831151238 82 313 4.3 5.2 0.00 0.00 0.00 78 1013.5
20260831150722 82 314 2.6 10.4 0.00 0.00 0.00 78 1013.5
20260831150234 81 326 4.3 10.4 0.00 0.00 0.00 78 1013.7
20260831150002 81 317 7.0 10.4 0.00 0.00 0.00 78 1010.8
20260831145745 81 317 6.1 8.7 0.00 0.00 0.00 79 1013.5
20260831145228 81 308 2.6 6.1 0.00 0.00 0.00 82 1013.3
20260831144735 80 315 0.9 5.2 0.00 0.00 0.00 83 1012.9
20260831144519 79 315 2.6 5.2 0.00 0.00 0.00 83 1010.1
20260831144250 80 315 3.5 5.2 0.00 0.00 0.00 83 1012.8
20260831143733 79 254 1.7 3.5 0.00 0.00 0.00 83 1013.0
20260831143244 79 254 1.7 3.5 0.00 0.00 0.00 83 1013.1
20260831143022 78 254 0.9 4.3 0.00 0.00 0.00 84 1010.3
20260831142727 79 254 0.0 4.3 0.00 0.00 0.00 84 1013.1
20260831142239 78 254 2.6 7.0 0.00 0.00 0.00 84 1013.1
20260831141722 78 254 2.6 10.4 0.00 0.00 0.00 84 1013.2
20260831141526 77 243 3.5 10.4 0.00 0.00 0.00 84 1010.6
20260831141236 78 250 6.1 10.4 0.00 0.00 0.00 84 1013.6
20260831140743 77 261 3.5 7.0 0.00 0.00 0.00 84 1013.3
20260831140227 77 302 2.6 7.0 0.00 0.00 0.00 84 1013.2
20260831140035 77 277 5.2 7.0 0.00 0.00 0.00 84 1010.4
20260831135739 77 286 3.5 7.0 0.00 0.00 0.00 84 1013.2
20260831135250 77 277 2.6 7.8 0.00 0.00 0.00 84 1013.2
20260831134732 77 297 2.6 8.7 0.00 0.00 0.00 84 1013.0
20260831134528 76 317 4.3 11.3 0.00 0.00 0.00 85 1010.2
20260831134245 77 293 6.1 11.3 0.00 0.00 0.00 85 1013.2
20260831133728 77 298 7.0 11.3 0.00 0.00 0.00 85 1013.3
20260831133257 77 253 8.7 11.3 0.00 0.00 0.00 85 1013.4
20260831133014 76 244 7.0 13.0 0.00 0.00 0.00 86 1010.6
20260831132748 77 254 7.0 13.0 0.00 0.00 0.00 86 1013.4
20260831132231 76 280 7.8 13.0 0.00 0.00 0.00 87 1013.3
20260831131804 76 251 6.1 8.7 0.00 0.00 0.00 87 1013.5
20260831131559 76 257 5.2 10.4 0.00 0.00 0.00 87 1010.6
20260831131228 76 257 5.2 10.4 0.00 0.00 0.00 87 1013.4
20260831130758 76 300 7.8 10.4 0.00 0.00 0.00 88 1012.9
20260831130221 76 292 6.1 7.8 0.00 0.00 0.00 88 1013.0
20260831130037 76 277 4.3 8.7 0.00 0.00 0.00 88 1010.2
20260831125811 76 279 5.2 8.7 0.00 0.00 0.00 88 1013.1
20260831125234 76 256 6.1 8.7 0.00 0.00 0.00 88 1013.2
20260831124746 76 244 5.2 9.6 0.00 0.00 0.00 89 1013.2
20260831124518 75 241 5.2 9.6 0.00 0.00 0.00 89 1010.5
20260831124231 76 269 6.1 9.6 0.00 0.00 0.00 89 1013.2
20260831123742 76 269 7.0 9.6 0.00 0.00 0.00 89 1013.2
20260831123226 76 264 5.2 7.8 0.00 0.00 0.00 89 1013.1
20260831123022 75 257 5.2 7.0 0.00 0.00 0.00 89 1010.3
20260831122737 75 239 4.3 7.0 0.00 0.00 0.00 89 1013.0
20260831122243 75 211 2.6 5.2 0.00 0.00 0.00 89 1012.8
20260831121728 75 211 3.5 6.1 0.00 0.00 0.00 89 1012.8
20260831121524 75 211 3.5 7.0 0.00 0.00 0.00 89 1010.0
20260831121242 75 211 5.2 7.0 0.00 0.00 0.00 88 1012.7
20260831120725 75 211 4.3 6.1 0.00 0.00 0.00 88 1012.5
20260831120237 75 205 3.5 6.1 0.00 0.00 0.00 88 1012.4
20260831120025 75 205 3.5 6.1 0.00 0.00 0.00 88 1009.6
20260831115748 75 205 4.3 6.1 0.00 0.00 0.00 88 1012.4
20260831115231 75 212 4.3 5.2 0.00 0.00 0.00 88 1012.2
20260831114743 76 222 3.5 5.2 0.00 0.00 0.00 88 1012.0
20260831114524 75 207 3.5 5.2 0.00 0.00 0.00 88 1009.3
20260831114230 76 207 3.5 5.2 0.00 0.00 0.00 88 1012.0
20260831113756 76 205 4.3 5.2 0.00 0.00 0.00 88 1011.9
20260831113245 76 205 2.6 5.2 0.00 0.00 0.00 88 1011.8
20260831113119 75 205 3.5 5.2 0.00 0.00 0.00 88 1009.0
20260831112728 76 215 3.5 5.2 0.00 0.00 0.00 88 1011.7
20260831112241 76 215 3.5 5.2 0.00 0.00 0.00 88 1011.5
20260831111753 76 205 3.5 4.3 0.00 0.00 0.00 88 1011.6
20260831111549 75 205 2.6 5.2 0.00 0.00 0.00 88 1008.7
20260831111247 76 205 2.6 5.2 0.00 0.00 0.00 88 1011.5
20260831110728 75 205 4.3 5.2 0.00 0.00 0.00 87 1011.6
20260831110235 75 205 2.6 3.5 0.00 0.00 0.00 87 1011.4
20260831110049 75 205 1.7 3.5 0.00 0.00 0.00 87 1008.6
20260831105746 76 205 1.7 3.5 0.00 0.00 0.00 87 1011.4
20260831105229 76 205 2.6 3.5 0.00 0.00 0.00 87 1011.6
20260831104801 76 205 1.7 2.6 0.00 0.00 0.00 86 1011.5
20260831104526 75 205 0.9 2.6 0.00 0.00 0.00 86 1008.7
20260831104225 76 205 1.7 2.6 0.00 0.00 0.00 86 1011.5
20260831103735 76 205 1.7 2.6 0.00 0.00 0.00 86 1011.4
20260831103247 76 205 1.7 2.6 0.00 0.00 0.00 86 1011.4
20260831103027 75 205 0.9 3.5 0.00 0.00 0.00 86 1008.6
20260831102722 76 205 0.9 3.5 0.00 0.00 0.00 86 1011.4
20260831102232 76 205 1.7 3.5 0.00 0.00 0.00 86 1011.4
20260831101745 76 205 2.6 4.3 0.00 0.00 0.00 86 1011.3
20260831101532 76 205 1.7 5.2 0.00 0.00 0.00 86 1008.5
20260831101231 76 205 2.6 5.2 0.00 0.00 0.00 86 1011.4
20260831100742 76 205 3.5 5.2 0.00 0.00 0.00 86 1011.3
20260831100225 76 205 3.5 4.3 0.00 0.00 0.00 85 1011.3
20260831100039 76 205 2.6 4.3 0.00 0.00 0.00 85 1008.5
20260831095737 76 205 2.6 4.3 0.00 0.00 0.00 85 1011.3
20260831095250 76 205 2.6 4.3 0.00 0.00 0.00 85 1011.2
20260831094730 77 205 2.6 3.5 0.00 0.00 0.00 85 1010.9
20260831094555 76 205 0.9 2.6 0.00 0.00 0.00 85 1008.1
20260831094243 77 205 1.7 2.6 0.00 0.00 0.00 85 1010.9
20260831093724 77 205 1.7 2.6 0.00 0.00 0.00 84 1010.8
20260831093238 77 205 1.7 2.6 0.00 0.00 0.00 84 1010.9
20260831093042 76 205 0.9 2.6 0.00 0.00 0.00 84 1008.0
20260831092748 77 205 0.9 2.6 0.00 0.00 0.00 84 1010.8
20260831092231 77 205 1.7 3.5 0.00 0.00 0.00 84 1010.7
20260831091744 77 205 2.6 4.3 0.00 0.00 0.00 84 1010.7
20260831091523 76 205 1.7 4.3 0.00 0.00 0.00 83 1007.9
20260831091228 77 205 1.7 4.3 0.00 0.00 0.00 83 1010.6
20260831090734 77 205 2.6 4.3 0.00 0.00 0.00 83 1010.6
20260831090306 77 205 2.6 7.0 0.00 0.00 0.00 83 1010.5
20260831090012 77 205 2.6 7.0 0.00 0.00 0.00 83 1007.8
20260831085730 77 205 4.3 7.0 0.00 0.00 0.00 83 1010.6
20260831085240 77 202 4.3 7.0 0.00 0.00 0.00 83 1010.6
20260831084726 77 206 4.3 6.1 0.00 0.00 0.00 83 1010.6
20260831084528 77 209 4.3 7.0 0.00 0.00 0.00 82 1007.8
20260831084239 78 203 5.2 7.8 0.00 0.00 0.00 82 1010.7
20260831083721 78 202 5.2 7.8 0.00 0.00 0.00 82 1010.5
20260831083228 78 200 5.2 7.8 0.00 0.00 0.00 82 1010.4
20260831083019 77 199 3.5 8.7 0.00 0.00 0.00 82 1007.5
20260831082759 78 180 5.2 8.7 0.00 0.00 0.00 82 1010.3
20260831082310 78 194 6.1 8.7 0.00 0.00 0.00 82 1010.2
20260831081733 78 166 7.0 8.7 0.00 0.00 0.00 83 1010.3
20260831081543 77 164 6.1 8.7 0.00 0.00 0.00 83 1007.5
20260831081245 78 186 7.0 8.7 0.00 0.00 0.00 83 1010.3
20260831080727 78 178 7.0 10.4 0.00 0.00 0.00 83 1010.2
20260831080239 78 169 6.1 11.3 0.00 0.00 0.00 83 1010.2
20260831080054 77 157 6.1 8.7 0.00 0.00 0.00 83 1007.3
20260831075748 78 193 7.0 8.7 0.00 0.00 0.00 83 1010.2
20260831075230 78 167 7.0 9.6 0.00 0.00 0.00 83 1010.3
20260831074744 78 161 6.1 7.8 0.00 0.00 0.00 83 1010.3
20260831074553 77 174 5.2 7.0 0.00 0.00 0.00 83 1007.5
20260831074231 78 155 6.1 8.7 0.00 0.00 0.00 83 1010.4
20260831073742 78 162 6.1 7.8 0.00 0.00 0.00 82 1010.5
20260831073228 78 163 5.2 7.0 0.00 0.00 0.00 82 1010.6
20260831073056 78 178 5.2 7.0 0.00 0.00 0.00 82 1007.7
20260831072742 78 174 5.2 7.0 0.00 0.00 0.00 82 1010.6
20260831072224 78 186 5.2 7.0 0.00 0.00 0.00 82 1010.6
20260831071732 78 167 6.1 7.8 0.00 0.00 0.00 82 1010.6
20260831071503 78 178 4.3 6.1 0.00 0.00 0.00 82 1007.8
20260831071245 78 177 4.3 6.1 0.00 0.00 0.00 82 1010.7
20260831070727 78 169 4.3 6.1 0.00 0.00 0.00 82 1010.8
20260831070239 78 176 4.3 6.1 0.00 0.00 0.00 82 1010.7
20260831070015 78 186 4.3 7.0 0.00 0.00 0.00 82 1007.9
20260831065750 78 177 4.3 7.0 0.00 0.00 0.00 82 1010.7
20260831065242 79 180 5.2 7.0 0.00 0.00 0.00 82 1010.8
20260831064723 79 213 2.6 4.3 0.00 0.00 0.00 81 1010.8
20260831064555 78 254 1.7 3.5 0.00 0.00 0.00 81 1008.0
20260831064236 79 254 2.6 3.5 0.00 0.00 0.00 81 1010.7
20260831063742 79 254 2.6 6.1 0.00 0.00 0.00 81 1010.6
20260831063225 79 254 3.5 7.0 0.00 0.00 0.00 80 1010.6
20260831063059 79 254 4.3 7.0 0.00 0.00 0.00 80 1007.8
20260831062758 80 254 4.3 7.0 0.00 0.00 0.00 79 1010.7
20260831062253 80 240 4.3 6.1 0.00 0.00 0.00 78 1010.5
20260831061753 80 286 2.6 6.1 0.00 0.00 0.00 78 1010.5
20260831061604 80 286 3.5 6.1 0.00 0.00 0.00 77 1007.6
20260831061246 81 288 4.3 6.1 0.00 0.00 0.00 77 1010.5
20260831060727 81 221 3.5 6.1 0.00 0.00 0.00 76 1010.4
20260831060234 81 175 3.5 6.1 0.00 0.00 0.00 76 1010.1
20260831060057 81 187 3.5 7.8 0.00 0.00 0.00 76 1007.2
20260831055747 81 184 4.3 7.8 0.00 0.00 0.00 76 1010.1
20260831055232 81 169 5.2 7.0 0.00 0.00 0.00 76 1010.0
20260831054743 82 202 6.1 8.7 0.00 0.00 0.00 76 1010.1
20260831054556 81 163 6.1 10.4 0.00 0.00 0.00 76 1007.2
20260831054227 82 180 6.1 10.4 0.00 0.00 0.00 76 1010.0
20260831053758 82 152 6.1 12.2 0.00 0.00 0.00 76 1009.9
20260831053221 82 165 7.0 9.6 0.00 0.00 0.00 76 1009.8
20260831053039 82 177 7.0 10.4 0.00 0.00 0.00 75 1007.0
20260831052749 83 169 7.0 9.6 0.00 0.00 0.00 75 1009.9
20260831052231 83 165 7.0 7.8 0.00 0.00 0.00 75 1010.0
20260831051743 83 143 6.1 8.7 0.00 0.00 0.00 75 1009.9
20260831051551 83 175 5.2 10.4 0.00 0.00 0.00 75 1007.1
20260831051228 83 153 7.0 10.4 0.00 0.00 0.00 75 1009.8
20260831050736 84 170 7.8 10.4 0.00 0.00 0.00 75 1009.8
20260831050249 84 158 7.0 9.6 0.00 0.00 0.00 75 1009.9
20260831050042 83 153 4.3 8.7 0.00 0.00 0.00 75 1007.0
20260831045731 84 154 4.3 7.8 0.00 0.00 0.00 75 1010.0
20260831045245 84 141 4.3 7.8 0.00 0.00 0.00 75 1010.0
20260831044724 84 132 4.3 7.8 0.00 0.00 0.00 74 1010.0
20260831044548 84 143 4.3 7.8 0.00 0.00 0.00 74 1007.1
20260831044238 84 129 5.2 8.7 0.00 0.00 0.00 74 1009.9
20260831043748 84 141 6.1 9.6 0.00 0.00 0.00 74 1009.9
20260831043240 85 126 7.0 9.6 0.00 0.00 0.00 74 1009.9
20260831043028 84 131 6.1 9.6 0.00 0.00 0.00 74 1007.0
20260831042725 85 130 5.2 7.8 0.00 0.00 0.00 74 1009.9
20260831042259 85 134 4.3 7.0 0.00 0.00 0.00 74 1009.9
20260831041807 85 117 5.2 7.8 0.00 0.00 0.00 74 1010.0
20260831041553 84 132 4.3 7.8 0.00 0.00 0.00 73 1007.1
20260831041233 85 118 4.3 7.8 0.00 0.00 0.00 73 1010.0
20260831040743 85 140 4.3 7.0 0.00 0.00 0.00 73 1010.0
20260831040229 85 130 4.3 7.0 0.00 0.00 0.00 72 1010.1
20260831040056 84 140 3.5 7.0 0.00 0.00 0.00 72 1007.2
20260831035742 85 146 2.6 4.3 0.00 0.00 0.00 71 1010.1
20260831035227 85 146 3.5 4.3 0.00 0.00 0.00 71 1010.3
20260831034800 85 146 3.5 4.3 0.00 0.00 0.00 71 1010.3
20260831034548 84 146 2.6 4.3 0.00 0.00 0.00 71 1007.5
20260831034225 85 146 2.6 4.3 0.00 0.00 0.00 71 1010.3
20260831033733 85 136 3.5 6.1 0.00 0.00 0.00 71 1010.4
20260831033306 85 147 3.5 6.1 0.00 0.00 0.00 71 1010.3
20260831033024 85 131 3.5 6.1 0.00 0.00 0.00 71 1007.5
20260831032729 85 136 3.5 6.1 0.00 0.00 0.00 71 1010.3
20260831032242 85 133 3.5 4.3 0.00 0.00 0.00 71 1010.3
20260831031727 85 133 3.5 4.3 0.00 0.00 0.00 71 1010.4
20260831031522 85 133 2.6 3.5 0.00 0.00 0.00 71 1007.6
20260831031300 85 133 2.6 3.5 0.00 0.00 0.00 71 1010.4
20260831030722 86 133 2.6 3.5 0.00 0.00 0.00 71 1010.4
20260831030229 86 133 2.6 4.3 0.00 0.00 0.00 71 1010.5
20260831030013 85 133 2.6 4.3 0.00 0.00 0.00 71 1007.7
20260831025743 86 133 2.6 4.3 0.00 0.00 0.00 71 1010.5
20260831025224 86 133 2.6 4.3 0.00 0.00 0.00 71 1010.5
20260831024756 86 133 2.6 4.3 0.00 0.00 0.00 71 1010.5
20260831024600 86 131 2.6 4.3 0.00 0.00 0.00 71 1007.6
20260831024248 86 132 2.6 4.3 0.00 0.00 0.00 70 1010.5
20260831023731 86 131 2.6 4.3 0.00 0.00 0.00 70 1010.4
20260831023243 86 134 3.5 4.3 0.00 0.00 0.00 69 1010.3
20260831023010 86 134 2.6 4.3 0.00 0.00 0.00 69 1007.5
20260831022725 87 134 2.6 4.3 0.00 0.00 0.00 69 1010.3
20260831022237 87 134 2.6 4.3 0.00 0.00 0.00 69 1010.3
20260831021746 87 134 2.6 4.3 0.00 0.00 0.00 68 1010.3
20260831021555 86 134 2.6 6.1 0.00 0.00 0.00 68 1007.3
20260831021239 87 113 3.5 6.1 0.00 0.00 0.00 67 1010.3
20260831020809 87 130 3.5 6.1 0.00 0.00 0.00 66 1010.2
20260831020231 88 131 2.6 3.5 0.00 0.00 0.00 66 1010.2
20260831020045 87 136 1.7 3.5 0.00 0.00 0.00 66 1007.3
20260831015743 88 207 2.6 3.5 0.00 0.00 0.00 65 1010.2
20260831015227 88 207 2.6 3.5 0.00 0.00 0.00 65 1010.2
20260831014734 89 207 2.6 3.5 0.00 0.00 0.00 64 1010.0
20260831014551 88 207 1.7 3.5 0.00 0.00 0.00 64 1007.0
20260831014309 89 207 1.7 2.6 0.00 0.00 0.00 64 1009.9
20260831013731 89 207 2.6 2.6 0.00 0.00 0.00 63 1009.9
20260831013243 90 207 1.7 2.6 0.00 0.00 0.00 62 1009.9
20260831013034 89 207 1.7 2.6 0.00 0.00 0.00 62 1006.9
20260831012725 90 207 0.9 2.6 0.00 0.00 0.00 61 1009.8
20260831012256 90 207 1.7 2.6 0.00 0.00 0.00 61 1009.8
20260831011743 90 207 0.9 1.7 0.00 0.00 0.00 60 1009.8
20260831011515 90 207 0.0 1.7 0.00 0.00 0.00 60 1007.0
20260831011229 91 207 0.9 1.7 0.00 0.00 0.00 60 1009.8
20260831010800 91 207 1.7 1.7 0.00 0.00 0.00 60 1009.8
20260831010249 91 207 0.9 1.7 0.00 0.00 0.00 59 1009.7
20260831010042 91 207 0.0 1.7 0.00 0.00 0.00 59 1006.8
20260831005740 92 207 0.9 1.7 0.00 0.00 0.00 59 1009.7
20260831005254 92 207 1.7 1.7 0.00 0.00 0.00 58 1009.7
20260831004802 92 207 0.9 2.6 0.00 0.00 0.00 58 1009.7
20260831004558 92 207 0.9 2.6 0.00 0.00 0.00 58 1006.7
20260831004228 93 207 0.9 2.6 0.00 0.00 0.00 58 1009.7
20260831003739 93 207 1.7 2.6 0.00 0.00 0.00 58 1009.7
20260831003223 93 207 1.7 2.6 0.00 0.00 0.00 58 1009.7
20260831003007 93 207 0.9 2.6 0.00 0.00 0.00 58 1006.8
20260831002755 93 207 1.7 2.6 0.00 0.00 0.00 58 1009.8
20260831002248 93 207 1.7 2.6 0.00 0.00 0.00 58 1009.7
20260831001734 93 207 1.7 2.6 0.00 0.00 0.00 58 1009.7
20260831001551 93 207 1.7 2.6 0.00 0.00 0.00 58 1006.8
20260831001246 94 207 1.7 2.6 0.00 0.00 0.00 58 1009.8
20260831000733 94 207 1.7 2.6 0.00 0.00 0.00 58 1009.7
20260831000248 94 207 1.7 2.6 0.00 0.00 0.00 58 1009.7
20260831000039 93 207 1.7 3.5 0.00 0.00 0.00 57 1006.8
20260830235727 94 207 1.7 3.5 0.00 0.00 0.00 57 1009.7
20260830235238 94 207 1.7 3.5 0.00 0.00 0.00 57 1009.8
20260830234721 95 207 1.7 3.5 0.00 0.00 0.00 58 1009.7
20260830234555 94 207 0.9 3.5 0.00 0.00 0.00 58 1006.9
20260830234237 95 207 1.7 3.5 0.00 0.00 0.00 58 1009.8
20260830233750 95 207 1.7 3.5 0.00 0.00 0.00 58 1009.8
20260830233237 95 207 2.6 4.3 0.00 0.00 0.00 57 1009.7
20260830233043 95 207 1.7 4.3 0.00 0.00 0.00 57 1006.8
20260830232748 96 207 2.6 5.2 0.00 0.00 0.00 57 1009.7
20260830232230 96 207 3.5 6.1 0.00 0.00 0.00 55 1009.7
20260830231803 96 207 3.5 6.1 0.00 0.00 0.00 54 1009.6
20260830231526 96 198 4.3 6.1 0.00 0.00 0.00 55 1006.7
20260830231229 96 201 3.5 6.1 0.00 0.00 0.00 55 1009.6
20260830230742 96 199 3.5 6.1 0.00 0.00 0.00 55 1009.6
20260830230227 96 182 4.3 6.1 0.00 0.00 0.00 56 1009.5
20260830230037 96 208 2.6 6.1 0.00 0.00 0.00 56 1006.6
20260830225754 96 224 3.5 5.2 0.00 0.00 0.00 55 1009.5
20260830225244 96 182 3.5 8.7 0.00 0.00 0.00 56 1009.5
20260830224728 96 202 4.3 8.7 0.00 0.00 0.00 55 1009.4
20260830224525 95 196 5.2 8.7 0.00 0.00 0.00 55 1006.6
20260830224243 96 218 5.2 7.0 0.00 0.00 0.00 55 1009.4
20260830223723 95 215 4.3 8.7 0.00 0.00 0.00 55 1009.4
20260830223234 96 215 6.1 8.7 0.00 0.00 0.00 54 1009.5
20260830223018 95 191 4.3 9.6 0.00 0.00 0.00 55 1006.6